Vorticity
nan nan nan nan nan nan nan nan nan nan nan nan nan nan nan nan nan nan nan nan nan nan nan nan nan nan nan nan nan nan nan nan nan nan nan nan nan nan nan nan nan nan nan nan nan nan nan nan nan nan nan nan nan nan
nan 27 22 20 15 15 15 14 16 18 20 15 11 16 16 10 -5 -9 4 10 13 9 6 12 11 8 12 16 8 7 5 12 8 7 8 11 10 15 12 7 10 11 12 12 10 3 13 8 5 9 9 11 16 nan
nan 33 31 18 14 15 17 19 21 18 15 12 12 12 12 12 -1 -7 6 9 9 10 9 13 13 11 16 9 7 9 10 13 12 11 10 10 11 12 9 10 8 12 15 10 11 13 11 5 5 13 12 12 15 nan
nan 19 30 30 21 21 23 22 17 14 16 15 13 10 6 8 4 -2 5 11 8 9 13 12 15 12 9 13 9 5 7 10 12 13 12 10 13 10 8 14 11 12 12 7 3 9 14 17 12 11 12 12 12 nan
nan 12 14 19 22 21 18 18 19 13 12 15 14 12 12 8 -1 -2 9 12 10 7 9 11 13 17 11 13 14 9 4 5 8 9 11 9 10 10 11 11 12 14 8 9 12 15 10 20 20 11 13 13 10 nan
nan 9 8 10 11 11 11 11 13 15 13 12 10 10 10 5 -6 1 8 10 13 7 6 11 12 12 18 19 18 11 8 6 9 11 8 10 11 12 12 8 12 11 5 9 15 14 8 14 19 16 16 16 14 nan
nan 12 12 11 9 9 8 9 10 9 9 10 9 9 12 1 -7 5 12 20 15 6 8 9 12 11 13 15 13 13 14 11 11 10 11 12 11 10 11 12 12 15 15 13 14 3 10 18 13 14 15 14 14 nan
nan 13 13 11 10 11 12 11 10 10 11 11 11 11 9 -0 -1 4 14 17 7 6 10 12 13 15 13 11 9 11 12 11 12 11 11 12 10 10 12 12 11 13 12 11 8 11 22 17 16 14 13 10 9 nan
nan 13 16 14 10 10 11 11 11 11 10 10 8 -2 -1 4 10 18 20 10 -2 10 10 7 13 12 11 12 10 11 11 11 11 13 13 9 11 8 9 12 14 13 12 12 10 18 17 13 13 11 9 8 9 nan
nan 15 16 18 17 10 10 9 10 12 13 1 -5 -1 7 17 11 9 10 13 12 9 11 10 10 9 10 12 12 12 13 12 11 10 12 10 7 9 11 16 18 17 17 9 6 13 13 15 10 10 7 12 15 nan
nan 12 17 19 19 20 13 10 13 5 -8 -4 8 12 19 13 2 7 14 12 9 11 12 13 11 9 10 14 12 10 12 13 13 14 10 9 9 7 11 17 19 16 8 9 15 17 18 16 11 12 11 14 14 nan
nan 10 12 17 18 16 17 14 0 -3 4 11 9 12 12 6 12 13 10 12 13 11 11 14 10 9 10 11 11 11 13 14 13 11 12 9 7 13 15 10 13 16 14 20 18 12 16 17 15 11 11 9 11 nan
nan 9 8 10 16 17 15 -5 -8 17 14 11 12 14 10 12 14 14 11 8 9 10 13 12 13 12 11 11 11 13 12 9 11 11 11 9 9 12 14 12 11 12 16 14 14 13 13 12 15 13 10 11 11 nan
nan 8 10 8 8 8 4 5 15 17 16 14 12 9 10 12 12 12 10 12 12 10 12 13 11 12 11 12 13 12 11 14 13 10 8 8 12 13 12 13 11 9 11 11 14 13 11 12 11 11 12 13 11 nan
nan 8 4 10 11 9 6 2 10 14 12 11 12 10 9 11 12 13 15 11 10 13 12 12 11 11 13 11 12 12 12 10 10 10 7 11 16 13 11 13 13 14 13 12 11 12 11 10 10 11 12 13 11 nan
nan 0 15 18 12 10 3 4 11 15 13 9 9 12 13 9 9 13 12 12 10 14 14 11 14 9 10 12 10 13 13 7 8 8 12 13 13 15 15 14 13 14 14 13 13 12 11 11 11 9 11 12 13 nan
nan 16 27 9 4 2 7 13 12 13 13 11 7 11 19 14 10 12 11 13 16 14 12 11 9 14 13 12 9 11 10 5 9 14 16 15 15 14 14 14 14 14 13 12 12 12 12 12 11 10 11 12 12 nan
nan 28 13 2 -2 3 6 10 12 11 11 12 10 9 12 10 12 13 12 16 21 16 12 13 9 10 15 11 8 10 8 11 13 11 13 15 15 15 15 13 13 13 13 13 12 10 10 12 11 11 9 9 9 nan
nan 4 4 10 9 9 10 11 13 9 9 13 10 14 14 7 9 14 14 15 17 17 15 9 11 11 11 10 9 10 13 15 12 11 9 10 13 15 14 11 11 11 11 12 13 12 9 11 13 12 10 10 9 nan
nan 3 4 7 17 15 11 12 14 10 13 14 8 10 12 10 12 12 13 14 18 12 10 14 12 13 12 11 14 15 16 19 16 9 8 10 9 9 12 13 11 10 9 8 9 13 13 8 10 12 13 14 12 nan
nan 7 9 9 13 13 12 11 14 14 11 10 12 10 8 3 7 12 11 13 15 15 12 10 12 11 12 15 16 15 16 18 18 15 14 10 11 11 10 10 12 12 11 10 9 8 11 11 11 12 12 11 11 nan
nan 12 10 12 15 12 7 13 17 10 13 10 10 12 10 11 7 10 10 12 12 10 11 11 13 14 10 12 16 17 16 14 13 12 12 13 12 11 11 13 11 11 11 12 12 11 10 10 12 12 11 11 12 nan
nan 11 12 14 13 12 11 11 9 14 13 12 12 12 13 13 12 13 12 11 9 8 14 14 10 12 11 10 10 10 12 13 11 11 10 12 12 12 11 12 14 13 10 11 12 11 9 10 13 13 12 12 12 nan
nan 11 14 12 12 13 10 13 13 13 11 14 15 11 11 13 13 13 11 10 8 10 11 13 15 11 6 8 10 10 12 12 11 11 13 13 10 10 12 12 12 12 12 12 11 11 10 10 11 11 12 11 11 nan
nan 11 14 10 13 13 11 12 14 15 12 13 13 11 12 14 14 12 12 10 9 11 11 11 12 13 14 10 9 8 12 15 13 10 11 15 14 10 9 9 8 10 12 11 10 11 12 11 11 11 11 9 9 nan
nan 13 14 12 13 13 12 11 14 14 11 12 12 12 13 14 11 13 14 12 11 11 12 13 12 10 11 13 13 10 12 14 13 9 10 13 15 13 10 10 10 8 12 12 10 10 11 12 9 10 10 12 11 nan
nan 15 14 13 17 9 12 12 13 11 11 12 13 13 14 13 12 11 10 13 15 12 14 14 16 14 12 10 10 11 13 13 14 12 10 10 11 12 12 10 10 11 12 12 12 11 10 12 12 13 12 11 11 nan
nan 10 12 12 14 16 13 10 13 12 10 12 12 14 19 11 7 9 14 16 13 11 10 11 13 13 12 12 13 13 12 12 12 11 11 8 7 8 11 12 10 12 13 10 11 12 13 13 12 13 12 12 13 nan
nan 13 10 14 14 12 11 15 11 7 14 17 14 12 10 10 12 13 14 13 12 11 10 10 9 11 12 11 11 12 12 14 11 10 12 10 9 8 10 13 12 12 10 9 10 11 15 15 13 14 12 13 13 nan
nan 17 12 10 12 12 14 12 11 10 14 16 12 12 10 10 12 15 15 13 13 12 12 11 12 13 11 11 9 10 12 13 14 12 10 11 11 10 11 11 12 13 12 12 12 12 13 13 13 11 10 12 12 nan
nan 14 11 14 14 14 15 10 11 14 10 12 14 16 14 11 9 11 13 14 14 12 10 10 13 14 12 11 11 9 10 11 11 13 12 12 11 11 11 12 13 12 12 12 13 14 13 12 12 10 9 10 12 nan
nan 18 14 12 11 11 11 15 14 10 12 13 13 10 11 14 13 10 12 13 11 13 14 12 10 12 12 10 11 13 11 9 10 11 12 12 12 11 11 13 13 12 11 12 13 12 12 12 11 11 11 10 11 nan
nan nan nan nan nan nan nan nan nan nan nan nan nan nan nan nan nan nan nan nan nan nan nan nan nan nan nan nan nan nan nan nan nan nan nan nan nan nan nan nan nan nan nan nan nan nan nan nan nan nan nan nan nan nan
CAPE
76 91 118 26 120 114 174 188 174 82 43 64 25 31 43 52 29 0 0 0 7 17 1 9 0 20 6 2 0 0 0 0 0 0 0 0 0 0 0 0 0 0 0 0 0 0 0 0 0 0 0 0 0 0
52 41 93 108 106 137 157 116 73 54 39 29 22 39 46 45 24 0 0 2 0 0 8 24 3 0 0 16 0 0 0 0 0 0 0 0 0 0 0 4 0 1 0 0 0 0 0 0 0 0 0 0 0 0
15 23 45 78 53 50 60 47 37 39 26 29 45 22 30 45 29 2 0 0 0 16 0 1 0 0 0 0 0 0 0 0 0 0 0 1 0 0 0 0 0 0 0 0 0 0 0 0 0 0 0 0 0 0
23 23 12 27 23 34 38 23 12 14 33 37 26 29 33 30 38 3 12 0 1 70 19 3 22 25 23 0 0 0 7 0 0 0 0 0 3 0 0 0 0 0 0 0 0 0 0 0 0 0 0 0 0 0
22 19 26 28 24 19 14 20 27 38 28 29 34 42 53 59 21 0 0 0 1 78 16 0 3 2 0 0 0 0 7 7 0 0 0 13 0 0 0 0 0 0 0 0 0 0 0 0 0 0 0 0 0 0
58 28 8 9 15 15 7 8 10 17 17 26 41 45 45 45 8 23 64 55 93 83 5 0 0 0 5 90 60 3 0 0 3 0 0 0 0 0 0 0 0 0 0 0 0 0 0 0 0 0 0 0 0 0
54 55 51 38 28 25 21 15 16 17 16 14 26 49 45 55 34 66 39 0 0 73 89 6 0 0 0 80 37 2 0 3 2 0 0 0 0 0 0 0 0 0 0 0 0 0 0 0 0 0 0 0 0 0
24 45 46 39 42 44 27 18 23 27 33 40 45 49 49 49 19 21 0 1 3 78 23 1 0 1 0 1 4 0 1 0 0 0 0 0 0 0 0 0 0 0 0 0 0 0 0 0 0 0 0 0 0 0
31 32 33 39 38 37 34 35 19 20 18 32 56 67 47 43 31 0 19 0 0 20 0 0 4 0 0 2 2 0 2 0 1 0 0 0 0 0 0 0 0 0 0 0 0 0 0 0 0 0 0 0 0 0
20 13 16 19 16 13 27 33 37 35 43 49 40 53 1 8 1 35 26 17 11 19 28 27 3 0 0 0 1 0 0 0 2 0 0 0 0 0 0 0 0 0 0 0 0 1 0 0 0 0 0 0 0 0
5 21 23 36 22 6 3 2 23 48 41 25 5 5 10 9 33 0 0 1 3 6 0 0 0 9 0 0 0 0 0 0 0 0 0 0 0 0 1 0 0 0 0 0 0 0 0 0 0 0 0 0 1 1
24 24 24 34 30 42 40 37 15 23 8 0 5 33 30 4 0 0 0 0 0 0 0 0 0 0 0 0 0 0 0 0 0 0 0 0 3 2 2 1 1 0 0 0 0 0 0 0 0 0 0 1 1 0
4 6 1 13 30 35 13 2 0 5 6 21 0 0 0 0 5 0 0 3 1 0 0 0 0 0 0 0 0 0 0 0 0 0 1 5 7 2 2 0 0 0 0 0 1 0 0 0 0 0 0 0 0 1
0 0 0 0 1 5 0 0 0 0 10 0 1 1 0 0 1 0 1 1 0 0 0 0 0 0 0 0 0 0 0 0 1 0 2 5 4 3 1 1 0 0 0 0 0 0 0 0 0 0 0 0 0 0
0 0 0 0 2 5 1 0 0 0 3 0 0 0 0 6 5 6 1 0 0 0 0 0 0 0 0 0 0 0 0 1 2 4 6 3 2 1 1 1 1 1 0 1 1 0 0 0 0 0 1 1 0 0
10 14 3 2 9 2 0 0 0 0 0 0 0 0 0 1 0 0 0 0 2 0 0 0 0 0 2 1 0 0 1 1 3 3 3 1 1 1 2 1 1 1 1 2 2 2 1 0 0 1 0 0 0 0
0 0 16 1 0 0 0 0 0 0 0 3 7 0 0 2 2 1 1 1 1 0 3 0 0 1 0 0 0 2 0 3 1 3 3 6 4 4 3 3 4 4 3 3 2 2 2 1 0 0 0 0 0 0
0 0 0 0 0 0 0 0 0 0 4 5 5 6 2 1 0 0 0 0 0 2 1 3 0 0 0 0 0 3 5 1 8 5 1 1 4 4 4 3 3 3 2 2 3 4 3 2 2 3 1 0 0 0
1 1 0 0 0 0 0 0 0 0 2 9 4 0 0 0 0 0 0 0 0 0 0 0 0 1 2 3 3 3 2 2 6 4 3 3 3 3 3 3 2 2 3 3 3 3 3 2 3 3 2 0 1 1
0 0 0 0 0 0 0 0 0 0 1 0 0 0 0 0 0 0 0 0 0 0 0 1 3 3 4 3 5 5 3 2 5 1 2 2 4 2 2 2 3 2 2 2 1 1 1 1 1 1 1 1 1 1
0 0 0 0 0 0 0 0 1 0 2 0 0 0 0 0 0 0 0 0 0 2 5 6 5 5 5 4 4 4 3 1 1 3 2 1 2 3 3 3 2 2 1 2 1 1 1 2 1 1 1 1 1 1
0 0 0 0 0 0 0 0 0 0 0 0 0 0 0 0 0 0 0 0 6 9 9 4 5 3 2 3 4 4 3 1 0 1 0 0 0 0 0 1 0 1 1 2 1 1 1 0 0 0 0 0 0 0
0 0 0 0 0 0 0 0 0 0 0 0 0 0 0 0 0 0 0 1 4 4 5 6 4 2 1 1 0 1 0 0 1 1 0 0 0 0 0 0 0 0 0 0 0 0 0 0 0 0 0 0 0 0
0 0 0 0 0 0 0 0 0 0 0 0 0 0 0 0 0 0 0 1 3 1 0 1 0 0 0 0 0 0 0 0 0 0 0 0 0 0 0 0 0 0 0 0 0 0 0 0 0 0 0 0 0 0
0 0 0 0 0 0 0 0 0 0 0 0 0 0 0 0 0 0 0 0 0 0 0 0 0 0 0 0 0 0 0 0 0 0 0 0 0 0 0 0 0 0 0 0 0 0 0 0 0 0 0 0 0 0
0 0 0 0 0 0 0 0 0 0 0 0 0 0 0 0 0 0 0 0 0 0 0 0 0 0 0 0 0 0 0 0 0 0 0 0 0 0 0 0 0 0 0 0 0 0 0 0 0 0 0 0 0 0
0 0 0 0 0 0 0 0 0 0 0 0 0 0 0 0 0 0 0 0 0 0 0 0 0 0 0 0 0 0 0 0 0 0 0 0 0 0 0 0 0 0 0 0 0 0 0 0 0 0 0 0 0 0
0 0 0 0 0 0 0 0 0 0 0 0 0 0 0 0 0 0 0 0 0 0 0 0 0 0 0 0 0 0 0 0 0 0 0 0 0 0 0 0 0 1 0 0 0 0 0 0 0 0 0 0 0 0
0 0 0 0 0 0 0 0 0 0 0 0 0 0 0 0 0 0 0 0 0 0 0 0 0 0 0 0 0 0 0 0 0 0 0 0 0 0 0 0 0 0 0 0 0 1 2 0 0 0 0 0 0 0
0 0 0 0 0 0 0 0 0 0 0 0 0 0 0 0 0 0 0 0 0 0 0 0 0 0 0 0 0 0 0 0 0 0 0 0 0 0 0 0 0 0 0 0 0 0 0 0 0 0 0 0 0 0
0 0 0 0 0 0 0 0 0 0 0 0 0 0 0 0 0 0 0 0 0 0 0 0 0 0 0 0 0 0 0 0 0 0 0 0 0 0 0 0 0 0 0 0 0 0 0 0 0 0 0 0 0 0
0 0 0 0 0 0 0 0 0 0 0 0 0 0 0 0 0 0 0 0 0 0 0 0 0 0 0 0 0 0 0 0 0 0 0 0 0 0 0 0 0 0 0 0 0 0 0 0 0 0 0 0 0 0
0 0 0 0 0 0 0 0 0 0 0 0 0 0 0 0 0 0 0 0 0 0 0 0 0 0 0 0 0 0 0 0 0 0 0 0 0 0 0 0 0 0 0 0 0 0 0 0 0 0 0 0 0 0